ONEWEB-0022, 45135

Orbit data source: Space-Track

ONEWEB-0022, 45135 is a payload satellite owned by One Web (UK) in LEO that was launched on Thu, 06 Feb 2020 UTC via a SOYUZ-2-1B launch vehicle from the Tyuratam Missile And Space Complex (TTMTR). Payload-class satellites include a variety of spacecraft equipped with specific instruments for various scientific and technological missions. These include communications satellites like Starlink; space stations such as the ISS; scientific satellites like the Hubble; Earth observation satellites from companies like Planet Labs, Umbra, and HawkEye 360; GPS; miniature CubeSats for education and research; and military/defense satellites.

Loading next visibility...
Identifier
45135, 2020-008E
Orbit
LEO
Country
Flag of UKUK
Related business
Manufacturer
One Web
Mission
Non-operational Commercial Communications
Bus & Motor
ARROW, Unknown motor
Mass
148 kg wet, ~140 kg dry
Launch date (UTC)
2020-02-06 (6 years ago)
Launch vehicle
SOYUZ-2-1B
Launch site
Tyuratam Missile And Space Complex (TTMTR)
Object type
Payload
Rocket body
Debris
Shape & HBR
Trap Box + 2 Pan, 6.7 m
Radar Cross Section
3.464 m², Large (>1 m²)

Expand to show TLE details & history
Last TLE update: 11 hours ago

TLE from 11 hours ago
0 ONEWEB-0022
1 45135U 20008E   26126.50002424 -.00000425  00000-0 -12528-2 0  9995
2 45135  87.8871  44.6021 0001485  76.9016 283.2277 13.10488317302892
Epoch: 2026-05-06T12:00Z
TLE epoch observation values (Epoch: 2026-05-06T12:00:02.094Z)
Latitude
-0.00002°
Longitude
0.23375°
Altitude
1,223.9 km
Speed
7.243 km/s
True Right ascension
02h 58m 24s
True Declination
0° 00' 00"
Sunlit
Object was in daylight at epoch
Visualization orbit readout
Latitude
Unknown
Longitude
Unknown
Altitude
Unknown
Speed
Unknown
Apparent Right ascension
Unknown
Apparent Declination
Unknown
Sunlit
N/A
Visualization observer readout
Local Sidereal Time
07:02:31
Azimuth
Unknown
Elevation
Unknown
Doppler factor
Unknown
Orbital elements
Apogee altitude
1,219.518 km
Perigee altitude
1,217.262 km
Semi-major axis
7,596.527 km
Eccentricity
0.00015
Inclination
87.8871°
RAAN
44.6021°
Arg. of periapsis
76.9016°
True anomaly
283.21113°
Mean anomaly
283.2277°
Eccentric anomaly
283.21942°
Mean motion
3.27809 °/min
Orbital period
109.82 mins
BSTAR
-0.0012528
Loading maneuver chart data...
Computing Atmospheric mass density...
Loading historical data...
Loading historical data...
Loading historical data...
Loading historical data...
Loading historical data...
Loading historical data...
Loading historical data...

Documentation

Showing up to 5 results
|